TimeEDT,TemperatureF,Dew PointF,Humidity,Sea Level PressureIn,VisibilityMPH,Wind Direction,Wind SpeedMPH,Gust SpeedMPH,PrecipitationIn,Events,Conditions,WindDirDegrees,DateUTC
12:50 AM,64.4,62.6,94,29.97,2.5,NNE,15.0,-,0.28,Rain,Heavy Rain,30,2013-07-26 04:50:00
12:53 AM,64.9,63.0,93,29.97,3.0,NNE,13.8,-,0.29,Rain,Rain,30,2013-07-26 04:53:00
1:53 AM,64.9,63.0,93,29.97,4.0,NNE,9.2,-,0.20,Rain,Rain,20,2013-07-26 05:53:00
2:16 AM,64.4,62.6,94,29.95,3.0,NNE,16.1,20.7,0.14,Rain,Heavy Rain,30,2013-07-26 06:16:00
2:53 AM,66.0,64.0,93,29.93,4.0,NNE,16.1,-,0.28,Rain,Heavy Rain,30,2013-07-26 06:53:00
3:06 AM,66.2,64.4,94,29.93,8.0,NNE,13.8,-,0.01,Rain,Light Rain,20,2013-07-26 07:06:00
3:15 AM,66.2,64.4,94,29.94,5.0,NNE,10.4,20.7,0.03,Rain,Rain,30,2013-07-26 07:15:00
3:53 AM,66.0,64.0,93,29.93,5.0,North,12.7,19.6,0.07,Rain,Rain,10,2013-07-26 07:53:00
4:53 AM,66.0,64.9,96,29.90,7.0,NNE,11.5,20.7,0.10,Rain,Light Rain,20,2013-07-26 08:53:00
5:53 AM,66.9,64.9,93,29.90,10.0,NNE,12.7,20.7,0.00,,Overcast,20,2013-07-26 09:53:00
6:53 AM,66.9,64.9,93,29.88,9.0,NNE,19.6,27.6,0.00,Rain,Light Rain,30,2013-07-26 10:53:00
7:53 AM,66.9,64.0,90,29.87,10.0,North,16.1,24.2,0.01,,Overcast,10,2013-07-26 11:53:00
8:53 AM,66.9,64.9,93,29.90,10.0,North,11.5,19.6,0.00,,Overcast,10,2013-07-26 12:53:00
9:53 AM,68.0,64.9,90,29.86,10.0,North,15.0,25.3,0.01,,Overcast,360,2013-07-26 13:53:00
10:53 AM,68.0,64.0,87,29.88,10.0,North,13.8,28.8,N/A,,Overcast,360,2013-07-26 14:53:00
11:53 AM,68.0,64.0,87,29.88,9.0,North,15.0,25.3,N/A,,Overcast,360,2013-07-26 15:53:00
12:53 PM,69.1,64.0,84,29.88,10.0,North,19.6,28.8,N/A,,Overcast,350,2013-07-26 16:53:00
1:53 PM,68.0,64.0,87,29.89,9.0,NNW,17.3,23.0,0.00,Rain,Light Rain,340,2013-07-26 17:53:00
2:53 PM,68.0,64.9,90,29.91,4.0,NNW,13.8,20.7,0.00,Rain,Light Rain,330,2013-07-26 18:53:00
3:53 PM,68.0,66.0,93,29.93,2.0,NW,9.2,17.3,0.14,Rain,Rain,310,2013-07-26 19:53:00
4:22 PM,68.0,66.2,94,29.94,2.5,WNW,8.1,-,0.05,Rain,Light Rain,300,2013-07-26 20:22:00
4:30 PM,68.0,66.2,94,29.94,2.5,WNW,5.8,-,0.06,Rain,Light Rain,290,2013-07-26 20:30:00
4:42 PM,69.8,66.2,88,29.94,3.0,WNW,9.2,-,0.07,Rain,Light Rain,300,2013-07-26 20:42:00
4:53 PM,69.1,66.0,90,29.94,4.0,WNW,8.1,-,0.07,Rain,Light Rain,290,2013-07-26 20:53:00
5:11 PM,69.8,66.2,88,29.95,4.0,WNW,10.4,17.3,0.01,Rain,Light Rain,290,2013-07-26 21:11:00
5:50 PM,69.8,66.2,88,29.96,6.0,NW,9.2,-,0.02,Rain,Light Rain,310,2013-07-26 21:50:00
5:53 PM,69.1,66.9,93,29.96,6.0,NW,8.1,-,0.03,Rain,Light Rain,310,2013-07-26 21:53:00
6:53 PM,70.0,66.9,90,29.97,10.0,NW,6.9,-,0.00,,Overcast,310,2013-07-26 22:53:00
7:53 PM,69.1,66.0,90,29.99,10.0,WNW,5.8,-,N/A,,Mostly Cloudy,300,2013-07-26 23:53:00
8:53 PM,68.0,66.0,93,30.00,10.0,West,3.5,-,N/A,,Scattered Clouds,280,2013-07-27 00:53:00
9:27 PM,68.0,66.2,94,30.02,10.0,West,5.8,-,0.01,Rain,Light Rain,280,2013-07-27 01:27:00
9:53 PM,66.9,64.9,93,30.03,10.0,Variable,3.5,-,0.01,,Scattered Clouds,0,2013-07-27 01:53:00
10:53 PM,66.0,64.0,93,30.03,10.0,WSW,5.8,-,N/A,,Clear,240,2013-07-27 02:53:00
11:53 PM,64.0,62.1,93,30.04,10.0,SW,5.8,-,N/A,,Clear,220,2013-07-27 03:53:00